STARLINK-11334, 61250

Orbit data source: Space-Track

STARLINK-11334, 61250 is a payload satellite owned by SpaceX/Seattle (US) in LEO that was launched on Wed, 25 Sep 2024 UTC via an FALCON 9 launch vehicle from the Air Force Western Test Range (AFWTR). Payload-class satellites include a variety of spacecraft equipped with specific instruments for various scientific and technological missions. These include communications satellites like Starlink; space stations such as the ISS; scientific satellites like the Hubble; Earth observation satellites from companies like Planet Labs, Umbra, and HawkEye 360; GPS; miniature CubeSats for education and research; and military/defense satellites.

Loading next visibility...
Identifier
61250, 2024-175H
Orbit
LEO
Country
Flag of USUS
Related business
Manufacturer
SpaceX/Seattle
Mission
Operational Commercial Communications
Bus & Motor
STARLINK V2M, Unknown motor
Mass
730 kg wet, ~700 kg dry
Launch date (UTC)
2024-09-25 (11 months ago)
Launch vehicle
FALCON 9
Launch site
Air Force Western Test Range (AFWTR)
Object type
Payload
Rocket body
Debris
Shape & HBR
Box + 2 Pan, 14.5 m
Radar Cross Section
36.964 m², Large (>1 m²)

Expand to show TLE details & history
Last TLE update: 9 hours ago

TLE from 9 hours ago
0 STARLINK-11334
1 61250U 24175H   25241.91668981  .00137267  00000-0  82845-3 0  9991
2 61250  53.1524 279.9988 0003624  31.3402 156.3725 15.76743837  6024
Epoch: 2025-08-29T22:00Z
TLE epoch observation values (Epoch: 2025-08-29T22:00:01.999Z)
Latitude
-6.29812°
Longitude
156.34954°
Altitude
343.853 km
Speed
7.702 km/s
True Right ascension
06h 58m 51s
True Declination
-6° 15' 30"
Sunlit
Object was in daylight at epoch
Visualization orbit readout
Latitude
Unknown
Longitude
Unknown
Altitude
Unknown
Speed
Unknown
Apparent Right ascension
Unknown
Apparent Declination
Unknown
Sunlit
N/A
Visualization observer readout
Local Sidereal Time
22:22:40
Azimuth
Unknown
Elevation
Unknown
Doppler factor
Unknown
Orbital elements
Apogee altitude
342.371 km
Perigee altitude
337.502 km
Semi-major axis
6,718.073 km
Eccentricity
0.00036
Inclination
53.1524°
RAAN
279.9988°
Arg. of periapsis
31.3402°
True anomaly
156.38914°
Mean anomaly
156.3725°
Eccentric anomaly
156.38082°
Mean motion
3.94163 °/min
Orbital period
91.33 mins
BSTAR
0.00082845
Loading maneuver chart data...
Computing Atmospheric mass density...
Loading historical data...
Loading historical data...
Loading historical data...
Loading historical data...
Loading historical data...
Loading historical data...
Loading historical data...

Documentation

Showing up to 5 results
|